www.pogodaiklimat.ru

Погода и климат >> Архив погоды >> Южная Африка >> Langebaan


ПОГОДА в Langebaan

  • Прогноз погоды в Langebaan
  • Монитор погоды в Langebaan
  • Климат города

АРХИВ ПОГОДЫ в Langebaan

Время (UTC), дата Ветер
(напр.,м/с)
 
Видим.   Явления Облачность Т
(С)
Тd
(С)
f
(%)
Тe
(С)
Тes
(С)
Комфортность P
(гПа)
Po
(гПа)
Тmin
(С)
Tmax
(С)
R
(мм)
R24
(мм)
S
(см)
15 14.10 СЗ 3 н/о н/о +19.6 +9.0 50 +21 +21 комфорт 853.4 961.3 +19.3 +21.9
18 14.10 З 5 н/о н/о +15.9 +9.6 66 +15 +15 853.9 963.4 +15.9 +21.9
21 14.10 З 4 н/о н/о +14.4 +8.4 67 +13 +13 854.6 964.8 +14.2 +21.9
00 15.10 З 3 н/о н/о +13.8 +7.8 67 +13 +13 853.9 964.3 +13.8 +21.9
03 15.10 СЗ 2 н/о н/о +13.3 +8.8 74 +13 +13 854.7 965.4 +12.7 +21.9
06 15.10 штиль 0 н/о н/о +13.6 +9.4 76 +13 +13 857.2 968.0 +12.1
09 15.10 З 3 н/о н/о +18.2 +9.6 57 +18 +18 858.8 967.8 +12.1 +18.4
12 15.10 З 5 н/о н/о +20.5 +9.8 50 +22 +22 комфорт 858.6 966.6 +12.1 +20.8
15 15.10 З 7 н/о н/о +18.7 +10.1 57 +19 +19 857.8 966.5 +18.4 +21.5
18 15.10 ЮЗ 4 н/о н/о +16.2 +9.2 63 +16 +16 857.2 966.9 +16.1 +21.5
21 15.10 В 1 н/о н/о +13.8 +8.8 72 +14 +14 857.4 968.1 +13.8 +21.5
00 16.10 штиль 0 н/о н/о +10.3 +8.2 87 +10 +10 855.7 967.8 +9.8 +21.5
03 16.10 штиль 0 н/о н/о +8.7 +7.3 91 +8 +8 854.8 967.5 +8.0 +21.5
06 16.10 С 1 н/о н/о +12.8 +10.0 83 +13 +13 857.2 968.4 +8.0
03 17.10 Ю 1 н/о н/о +8.6 +7.0 90 +8 +8 854.4 967.1 +8.3 +22.5
06 17.10 штиль 0 н/о н/о +14.1 +10.5 79 +14 +14 857.4 968.0 +8.0
09 17.10 С 2 н/о н/о +20.2 +5.9 39 +22 +22 комфорт 858.4 966.5 +8.0 +20.5
12 17.10 З 4 н/о н/о +24.0 +9.7 40 +25 +25 комфорт 857.6 964.1 +8.0 +24.5
15 17.10 З 5 н/о н/о +24.1 +9.1 38 +25 +25 комфорт 857.0 963.4 +23.7 +25.5
18 17.10 штиль 0 н/о н/о +17.3 +8.8 57 +17 +17 854.1 963.0 +17.3 +25.5
21 17.10 В 1 н/о н/о +12.8 +8.9 77 +13 +13 853.4 964.1 +12.8 +25.5
00 18.10 штиль 0 н/о н/о +12.4 +9.0 80 +12 +12 852.3 963.1 +11.7 +25.5
03 18.10 штиль 0 н/о н/о +11.1 +8.8 86 +10 +10 851.5 962.7 +10.9 +25.5
06 18.10 СВ 1 н/о н/о +14.1 +9.7 75 +14 +14 853.1 963.3 +9.6
09 18.10 З 4 н/о н/о +24.4 +8.5 36 +25 +25 комфорт 855.7 961.9 +9.6 +24.7
12 18.10 З 4 н/о н/о +25.9 +8.6 33 +26 +26 жарко 854.9 960.5 +9.6 +26.1
15 18.10 З 6 н/о н/о +23.3 +9.5 41 +25 +25 комфорт 854.1 960.6 +23.3 +26.8
18 18.10 З 4 н/о н/о +20.2 +5.5 38 +21 +21 комфорт 854.0 961.7 +20.1 +26.8
21 18.10 З 5 н/о н/о +18.1 +6.1 45 +18 +18 854.9 963.6 +18.1 +26.8
00 19.10 З 3 н/о н/о +15.6 +7.9 60 +15 +15 853.4 963.0 +13.6 +26.8
03 19.10 В 1 н/о н/о +11.7 +7.2 74 +12 +12 853.6 964.8 +11.7 +26.8
06 19.10 З 1 н/о н/о +15.3 +10.3 72 +16 +16 856.9 966.9 +9.9
09 19.10 СЗ 3 н/о н/о +19.0 +9.3 53 +20 +20 859.5 968.2 +9.9 +19.8
12 19.10 ЮВ 2 н/о н/о +21.7 +4.4 32 +22 +22 комфорт 860.6 968.2 +9.9 +22.5
15 19.10 В 1 н/о н/о +22.0 +5.1 33 +22 +22 комфорт 861.6 969.2 +21.0 +22.8
18 19.10 ЮВ 1 н/о н/о +16.2 +3.3 42 +17 +17 860.4 970.4 +16.2 +22.8
21 19.10 В 1 н/о н/о +13.8 +3.9 51 +14 +14 861.4 972.6 +13.8 +22.8
00 20.10 ЮВ 2 н/о н/о +11.9 +2.1 51 +12 +12 860.8 972.8 +11.2 +22.8
03 20.10 штиль 0 н/о н/о +11.6 +3.1 56 +11 +11 861.3 973.4 +11.2 +22.8
06 20.10 В 2 н/о н/о +16.9 +4.6 44 +17 +17 864.2 974.3 +11.2
09 20.10 В 2 н/о н/о +24.0 +1.8 23 +23 +23 комфорт 866.0 973.1 +11.2 +24.0
12 20.10 ЮВ 2 н/о н/о +26.4 +2.6 21 +25 +25 комфорт 866.2 972.2 +11.2 +26.8
15 20.10 ЮВ 2 н/о н/о +25.6 +2.5 22 +24 +24 комфорт 863.9 970.1 +25.6 +27.1
18 20.10 СВ 1 н/о н/о +18.6 +3.7 37 +20 +20 862.8 972.0 +18.6 +27.1
21 20.10 штиль 0 н/о н/о +14.6 +4.0 49 +15 +15 862.0 972.9 +14.3 +27.1
00 21.10 ЮВ 2 н/о н/о +16.5 -4.0 24 +17 +17 863.3 973.4 +14.3 +27.1
03 21.10 ЮВ 2 н/о н/о +14.5 -3.7 28 +14 +14 861.9 972.8 +14.2 +27.1
06 21.10 ЮВ 4 н/о н/о +16.5 -1.4 29 +16 +16 863.1 973.2 +14.2
09 21.10 В 2 н/о н/о +24.7 -0.9 18 +23 +23 комфорт 864.0 970.6 +14.2 +24.7
12 21.10 ЮВ 2 н/о н/о +29.0 -0.8 14 +26 +26 жарко 863.6 968.4 +14.2 +29.0

 

Местоположение метеостанции Langebaan (Южная Африка): широта -33.08 долгота 18.02 высота над уровнем моря 6 м.

В архиве по умолчанию представлена погода в Langebaan за последнюю неделю. Архивные данные за месяц целиком и за предыдущие месяцы, начиная с января 2011 года, Вы можете получить, выбрав интересующий диапазон дат из раскрывающегося списка и нажав кнопку "Ввод!".


*Определитесь, кто Вы:
робот инопланетянин человек

Внимание! Время в таблицах - всемирное. Для получения местного времени необходимо прибавить поправку, которая в Langebaan равна 2 ч.

Смотрите также архив погоды в соседних городах и на ближайших метеорологических станциях:

Погода в Geelbek (Южная Африка) (16 км)
Погода в Langebaanweg (Южная Африка) (19 км)
Погода в Cape Columbine (Южная Африка) (32 км)
Погода в Malmesbury (Южная Африка) (78 км)
Погода в Robben Island (Южная Африка) (86 км)
Погода в Table Bay (Южная Африка) (99 км)
Погода в Ysterplant (Южная Африка) (101 км)
Погода в Cape Town (Южная Африка) (102 км)
Погода в Cape Town Airport (Южная Африка) (112 км)
Погода в Cape Town Int Airport (Южная Африка) (112 км)

Пояснения к столбцам:

Ветер - указаны скорость ветра в м/с - средняя за 10 мин, порывы в срок и между сроками (в фигурных скобках) и направление, откуда дует ветер: С - северный, СВ - северо-восточный, В - восточный, ЮВ - юго-восточный, Ю - южный, ЮЗ - юго-западный, З - западный, СЗ - северо-западный.
Видимость - горизонтальная дальность видимости в метрах или километрах. При видимости от 1 до 10 км при отсутствии осадков обычно наблюдается дымка, при ухудшении видимости до 1 км и менее - туман. В сухую погоду видимость может ухудшаться дымом, пылью или мглою.
Явления - указаны атмосферные явления, наблюдавшиеся в срок или в последний час перед сроком; фигурными скобками обозначены явления, наблюдавшиеся между сроками (за 1-3 часа до срока); квадратными скобками обозначены град или гололедные отложения с указанием их диаметра в мм.
Облачность - указаны через наклонную черту общая и нижняя облачность в баллах и высота нижней границы облаков в метрах; квадратными скобками обозначены формы облаков: Ci - перистые, Cs - перисто-слоистые, Cc - перисто-кучевые, Ac - высококучевые, As - высокослоистые, Sc - слоисто-кучевые, Ns - слоисто-дождевые, Cu - кучевые, Cb - кучево-дождевые. Подробнее классификацию облаков см. в Атласе облаков (PDF).
T - Температура воздуха - температура, измеренная на высоте 2 м над землей.
Td - Температура точки росы - температура, при понижении до которой содержащийся в воздухе водяной пар достигнет насыщения.
f - Относительная влажность воздуха - влажноcть воздуха, измеренная на высоте 2 м над землей.
Te - Эффективная температура - температура, которую ощущает одетый по сезону человек в тени. Характеристика душности погоды. При расчете учитывается влияние влажности воздуха и скорости ветра на теплоощущения человека.
Tes - Эффективная температура на солнце - температура, которую ощущает человек, с поправкой на солнечный нагрев. Характеристика знойности погоды. Зависит от высоты солнца над горизонтом, облачности и скорости ветра. Ночью, в пасмурную погоду, а также при ветре 12 м/с и более поправка равна нулю.
P - Атмосферное давление - приведенное к уровню моря атмосферное давление.
Po - Атмосферное давление - измеренное на уровне метеостанции атмосферное давление.
Tmin - Минимальная температура - минимум температуры воздуха на высоте 2 м над землей.
Tmax - Максимальная температура - максимум температуры воздуха на высоте 2 м над землей.
R - Количество осадков - Количество выпавших осадков за период времени, мм. При наведении курсора мыши на число - период времени, за который выпало указанное количество осадков.
R24 - Количество осадков - Количество выпавших осадков за 24 часа, мм.
S - Снежный покров - Высота снежного покрова, см. При наведении курсора мыши на число - состояние снежного покрова и степень покрытия местности в баллах.